Content
SEND FEEDBACK

Daily
Averages
Monthly
Summary
United States of America

STATEN ISLAND, NEW YORK


Home > North America > United States > New York
Elevation: 152 feet     Latitude: 40 35N     Longitude: 074 09W

WEATHER
 
SELECT A DAY
Number of Records: 194,117;   Date Range: 1/1/95 - 12/26/14
 
SHARE

PRINT THIS DATA

[ ← Previous Day ]
WEATHER ALMANAC - FEBRUARY 19, 2013
[ Next Day → ]
[ °C ]   °F
Weather ElementAverageHighLow
Temperature40.9 °F48.9 °F (11:51 am)30 °F (3:51 am)
Dewpoint31.8 °F44.6 °F (5:13 pm)12.9 °F (1:51 am)
Humidity71.6 %93 % (5:13 pm)46 % (11:51 am)
Barometer29.87 in30.18 in (1:51 am)29.68 in (7:37 pm)
Wind Speed10.5 mph19.6 mph (11:51 pm)
Wind Gust27.6 mph (8:25 pm)
Weather ElementAverage
Visibility9 mi
Wind DirectionSSW (197.9 °)

Weather ElementTotal
Precipitation0.24 in
Heating Degree Days25.6 (Base 65)
Averaged from 29 records on February 19, 2013
WEATHER CONDITIONS BREAKOUT
WIND DIRECTION BREAKOUT
WEATHER BY HOUR - FEBRUARY 19, 2013
[ °C ]   °F
Local TimeTemperatureDewpointHumidityBarometerVisibilityWind DirectionWind SpeedGust SpeedPrecipitationEventsConditions
1:51 AM30.9 °F12.9 °F47 %30.18 in10.0 miSouth (180°)5.8 mphScattered Clouds
2:51 AM30.9 °F12.9 °F47 %30.15 in10.0 miSouth (180°)4.6 mphPartly Cloudy
3:51 AM30.0 °F15.1 °F54 %30.13 in10.0 miCalmPartly Cloudy
4:51 AM30.9 °F16.0 °F54 %30.13 in10.0 miSouth (190°)4.6 mphPartly Cloudy
5:51 AM32.0 °F18.0 °F56 %30.09 in10.0 miSouth (180°)3.5 mphPartly Cloudy
6:51 AM33.1 °F19.9 °F59 %30.06 in10.0 miSE (140°)4.6 mphMostly Cloudy
7:51 AM35.1 °F21.9 °F59 %30.07 in10.0 miVariable3.5 mphMostly Cloudy
8:51 AM37.0 °F24.1 °F59 %30.05 in10.0 miSouth (180°)5.8 mphOvercast
9:51 AM41.0 °F24.1 °F51 %30.01 in10.0 miSSE (160°)5.8 mphOvercast
10:51 AM44.1 °F25.0 °F47 %29.99 in10.0 miSouth (170°)5.8 mphOvercast
11:51 AM48.9 °F28.9 °F46 %29.94 in10.0 miSSW (200°)12.7 mph21.9 mphOvercast
12:51 PM45.0 °F36.0 °F71 %29.91 in9.0 miSW (220°)17.3 mph26.5 mph0.00 inRainLight Rain
1:51 PM44.1 °F37.9 °F79 %29.86 in8.0 miSouth (190°)8.1 mph0.05 inRainLight Rain
2:32 PM44.6 °F39.2 °F81 %29.83 in7.0 miSouth (170°)5.8 mph0.03 inRainLight Rain
2:51 PM44.1 °F39.9 °F85 %29.81 in7.0 miSouth (180°)6.9 mph0.04 inRainLight Rain
3:51 PM45.0 °F42.1 °F90 %29.75 in7.0 miSouth (170°)10.4 mph0.02 inRainLight Rain
4:51 PM46.9 °F43.0 °F86 %29.73 in7.0 miSSW (200°)15.0 mph0.02 inRainLight Rain
5:13 PM46.4 °F44.6 °F93 %29.72 in4.0 miSSW (210°)12.7 mph21.9 mph0.01 inRainLight Rain
5:51 PM46.0 °F44.1 °F93 %29.72 in5.0 miSW (230°)16.1 mph23.0 mph0.04 inRainLight Rain
7:22 PM44.6 °F42.8 °F93 %29.69 in10.0 miWSW (240°)12.7 mph17.3 mph0.00 inRainLight Rain
7:37 PM44.6 °F42.8 °F93 %29.68 in8.0 miSW (230°)16.1 mph0.00 inRainLight Rain
7:51 PM45.0 °F43.0 °F93 %29.69 in8.0 miWSW (250°)18.4 mph0.00 inRainLight Rain
8:25 PM44.6 °F41.0 °F87 %29.68 in10.0 miWSW (240°)16.1 mph27.6 mph0.01 inRainLight Rain
8:51 PM44.1 °F39.9 °F85 %29.69 in10.0 miWest (260°)12.7 mph0.02 inRainLight Rain
9:19 PM44.6 °F39.2 °F81 %29.70 in10.0 miWest (260°)15.0 mph0.00 inOvercast
9:45 PM42.8 °F35.6 °F76 %29.70 in10.0 miWest (280°)13.8 mph0.00 inOvercast
9:51 PM42.1 °F34.0 °F73 %29.70 in10.0 miWest (280°)15.0 mph0.00 inOvercast
10:51 PM39.9 °F30.9 °F70 %29.72 in10.0 miWest (270°)17.3 mph25.3 mphMostly Cloudy
11:51 PM37.9 °F28.0 °F68 %29.73 in10.0 miWest (280°)19.6 mph27.6 mphMostly Cloudy
Hourly data recorded from KEWR, located miles away from Staten Island, New York







STORIES FROM OUR PARTNERS